TimeCST,TemperatureF,Dew PointF,Humidity,Sea Level PressureIn,VisibilityMPH,Wind Direction,Wind SpeedMPH,Gust SpeedMPH,PrecipitationIn,Events,Conditions,WindDirDegrees,DateUTC
12:53 AM,46.0,39.0,76,30.20,10.0,Calm,Calm,-,N/A,,Clear,0,2012-11-20 06:53:00
1:53 AM,44.1,37.0,76,30.19,10.0,Calm,Calm,-,N/A,,Clear,0,2012-11-20 07:53:00
2:53 AM,43.0,39.0,86,30.19,10.0,Calm,Calm,-,N/A,,Partly Cloudy,0,2012-11-20 08:53:00
3:53 AM,43.0,37.0,80,30.19,10.0,Calm,Calm,-,N/A,,Clear,0,2012-11-20 09:53:00
4:53 AM,45.0,39.9,82,30.19,10.0,Calm,Calm,-,N/A,,Clear,0,2012-11-20 10:53:00
5:53 AM,45.0,41.0,86,30.21,10.0,Calm,Calm,-,N/A,,Clear,0,2012-11-20 11:53:00
6:53 AM,46.0,43.0,89,30.21,10.0,Calm,Calm,-,N/A,,Clear,0,2012-11-20 12:53:00
7:53 AM,48.9,45.0,86,30.23,9.0,Calm,Calm,-,N/A,,Scattered Clouds,0,2012-11-20 13:53:00
8:53 AM,57.0,46.9,69,30.24,10.0,Calm,Calm,-,N/A,,Mostly Cloudy,0,2012-11-20 14:53:00
9:53 AM,62.1,48.0,60,30.25,9.0,WNW,3.5,-,N/A,,Scattered Clouds,290,2012-11-20 15:53:00
10:53 AM,69.1,46.9,45,30.23,10.0,West,5.8,-,N/A,,Clear,280,2012-11-20 16:53:00
11:53 AM,73.0,45.0,37,30.19,10.0,Variable,3.5,-,N/A,,Clear,0,2012-11-20 17:53:00
12:53 PM,73.9,45.0,35,30.16,10.0,Calm,Calm,-,N/A,,Partly Cloudy,0,2012-11-20 18:53:00
1:53 PM,75.0,46.0,36,30.14,10.0,Variable,6.9,-,N/A,,Scattered Clouds,0,2012-11-20 19:53:00
2:53 PM,75.9,46.0,35,30.13,10.0,North,5.8,-,N/A,,Partly Cloudy,10,2012-11-20 20:53:00
3:53 PM,75.0,46.9,37,30.13,10.0,Calm,Calm,-,N/A,,Clear,0,2012-11-20 21:53:00
4:53 PM,71.1,46.9,42,30.13,10.0,Calm,Calm,-,N/A,,Clear,0,2012-11-20 22:53:00
5:53 PM,63.0,48.9,60,30.14,10.0,Calm,Calm,-,N/A,,Clear,0,2012-11-20 23:53:00
6:53 PM,57.9,48.0,70,30.16,10.0,Calm,Calm,-,N/A,,Clear,0,2012-11-21 00:53:00
7:53 PM,57.0,48.9,74,30.18,10.0,Calm,Calm,-,N/A,,Clear,0,2012-11-21 01:53:00
8:53 PM,53.1,46.9,80,30.19,10.0,Calm,Calm,-,N/A,,Clear,0,2012-11-21 02:53:00
9:53 PM,52.0,44.1,74,30.19,10.0,Calm,Calm,-,N/A,,Clear,0,2012-11-21 03:53:00
10:53 PM,51.1,42.1,71,30.19,10.0,Calm,Calm,-,N/A,,Clear,0,2012-11-21 04:53:00
11:53 PM,48.9,44.1,83,30.19,9.0,Calm,Calm,-,N/A,,Clear,0,2012-11-21 05:53:00